Location: Brunembert
(50.7122°N, 1.8935°E)
Time: 14:25:05
(UTC+00:00)

CARTOSAT-1 - Visible Passes

Search period start: 03 August 2021 00:00
Search period end: 13 August 2021 00:00
Orbit: 616 x 619 km, 97.8° (Epoch: 03 August)

Date Brightness Start Highest point End Pass type
(mag) Time Alt. Az. Time Alt. Az. Time Alt. Az.
03 Aug 4.4 21:32:53 15° S 21:36:19 47° W 21:40:31 10° NNW visible
04 Aug 4.6 20:12:58 10° SE 20:16:47 32° ENE 20:20:38 10° N visible
04 Aug 5.0 21:49:34 14° SSW 21:52:49 33° W 21:56:45 10° NNW visible
05 Aug 4.1 20:29:08 11° SE 20:33:07 44° ENE 20:37:14 10° N visible
05 Aug 5.5 22:06:15 12° SW 22:09:23 23° W 22:12:53 10° NW visible
06 Aug 3.7 20:45:49 14° SSE 20:49:29 63° ENE 20:53:47 10° N visible
06 Aug 5.9 22:23:11 10° SW 22:25:59 17° W 22:28:48 10° NW visible
07 Aug 3.5 21:02:30 16° SSE 21:05:54 89° E 21:10:15 10° NNW visible
07 Aug 6.2 22:41:03 10° WSW 22:42:37 12° W 22:44:12 10° WNW visible
08 Aug 3.9 21:19:11 18° S 21:22:20 64° WSW 21:26:40 10° NNW visible
09 Aug 4.9 19:59:29 10° ESE 20:02:58 25° ENE 20:06:28 10° N visible
09 Aug 4.5 21:35:53 18° SSW 21:38:50 44° W 21:43:00 10° NNW visible
10 Aug 4.5 20:15:28 10° SE 20:19:16 33° ENE 20:23:10 10° N visible
10 Aug 5.0 21:52:35 16° SSW 21:55:21 31° W 21:59:13 10° NNW visible
11 Aug 4.0 20:32:09 14° SE 20:35:37 46° ENE 20:39:46 10° N visible
11 Aug 5.5 22:09:16 13° SW 22:11:55 22° W 22:15:19 10° NW visible
12 Aug 3.6 20:48:51 18° SSE 20:51:59 67° ENE 20:56:18 10° N visible
12 Aug 6.0 22:25:58 10° SW 22:28:31 16° W 22:31:11 10° NW visible
